Regional Weather Roundup
Issued by NWS

Home | Current Version | Previous Version | Text Only | Print | Product List | Glossary On
Versions: 1 2 3 4 5 6 7 8 9 10 11 12 13 14 15 16 17 18 19 20 21 22 23 24 25 26 27 28 29 30 31 32 33 34 35 36 37 38 39 40 41 42 43 44 45 46 47 48 49 50
000
ASUS45 KPSR 281810
RWRAZ

ARIZONA REGIONAL HOURLY WEATHER ROUNDUP
NATIONAL WEATHER SERVICE PHOENIX AZ
1100 AM MST MON JUL 28 2014

NOTE: FAIR INDICATES FEW OR NO CLOUDS BELOW 12,000 FEET WITH NO
SIGNIFICANT WEATHER AND/OR OBSTRUCTIONS TO VISIBILITY.

AZZ001>003-036-281900-
NORTHWEST ARIZONA

CITY           SKY/WX    TMP DP  RH WIND       PRES   REMARKS
BULLHEAD CITY  SUNNY     99  57  25 CALM      30.00F
KINGMAN        SUNNY     90  53  28 SW12      30.20S
6HR MIN TEMP:  75; 6HR MAX TEMP:  90;

$$

AZZ004>008-015-016-018-281900-
NORTH CENTRAL ARIZONA

CITY           SKY/WX    TMP DP  RH WIND       PRES   REMARKS
GRAND CANYON   MOSUNNY   75  53  46 MISG      30.44S
6HR MIN TEMP:  54; 6HR MAX TEMP:  75;

WILLIAMS       CLOUDY    70  54  56 CALM      30.51S
PRESCOTT       MOSUNNY   82  52  35 E5        30.33S
6HR MIN TEMP:  65; 6HR MAX TEMP:  82;

FLAGSTAFF      PTSUNNY   72  46  39 SW6       30.47F
6HR MIN TEMP:  57; 6HR MAX TEMP:  73;

PAYSON         MOSUNNY   82  50  32 VRB6      30.37S
PAGE           SUNNY     86  53  32 VRB6      30.26F
6HR MIN TEMP:  73; 6HR MAX TEMP:  87;

$$

AZZ009>014-017-281900-
NORTHEAST ARIZONA

CITY           SKY/WX    TMP DP  RH WIND       PRES   REMARKS
WINSLOW        CLOUDY    75  58  55 VRB3      30.35F
6HR MIN TEMP:  66; 6HR MAX TEMP:  76; 6HR PCP: TRACE;

SAINT JOHNS    CLOUDY    73  56  54 S5        30.39S
6HR MIN TEMP:  63; 6HR MAX TEMP:  73;

WINDOW ROCK    CLOUDY    74  52  46 S9        30.47S
6HR MIN TEMP:  59; 6HR MAX TEMP:  74;

SHOW LOW       CLOUDY    68  52  56 SW10      30.47S
$$

AZZ023-281900-
GREATER PHOENIX AREA

CITY           SKY/WX    TMP DP  RH WIND       PRES   REMARKS
PHOENIX        PTSUNNY   98  58  26 S9        30.04F
6HR MIN TEMP:  85; 6HR MAX TEMP:  98;

BUCKEYE          N/A     95  59  30 E8        30.05F
GLENDALE       PTSUNNY   99  57  25 E9        30.06S
LUKE AFB       NOT AVBL
6HR MIN TEMP:  83; 6HR MAX TEMP:  97;

DEER VALLEY    MOSUNNY   95  58  28 S8        30.07S
6HR MIN TEMP:  81; 6HR MAX TEMP:  95;

SCOTTSDALE     SUNNY     94  59  31 VRB6      30.09S
6HR MIN TEMP:  83; 6HR MAX TEMP:  95;

MESA-FALCON    PTSUNNY   91  57  31 S10       30.06F
MESA-GATEWAY   MOSUNNY   95  57  28 SE7       30.09S
CHANDLER       PTSUNNY   95  59  30 E7        30.06F
$$

AZZ027-028-281900-
SOUTHWEST MARICOPA COUNTY AND PINAL COUNTY

CITY           SKY/WX    TMP DP  RH WIND       PRES   REMARKS
CASA GRANDE    MOSUNNY   93  61  33 CALM      30.08F
6HR MIN TEMP:  81; 6HR MAX TEMP:  93;

GILA BEND      MOCLDY    99  59  26 NE3       30.04F
$$

AZZ503-504-507>509-281900-
SOUTHEAST ARIZONA

CITY           SKY/WX    TMP DP  RH WIND       PRES   REMARKS
TUCSON         PTSUNNY   89  58  34 S8        30.18F
6HR MIN TEMP:  77; 6HR MAX TEMP:  89;

DAVIS-MONTHAN  PTSUNNY   88  63  43 SE9       30.16F
6HR MIN TEMP:  74; 6HR MAX TEMP:  88;

RYAN FIELD       N/A     90  59  35 E9        30.17S
NOGALES        CLOUDY    81  62  52 SE12      30.27F
6HR MIN TEMP:  67; 6HR MAX TEMP:  81;

SIERRA VISTA   PTSUNNY   81  61  50 E3        30.32F
DOUGLAS        MOSUNNY   78  62  57 SE7       30.30F
6HR MIN TEMP:  65; 6HR MAX TEMP:  78;

SAFFORD        MOSUNNY   83  60  45 SE8       30.21F
6HR MIN TEMP:  70; 6HR MAX TEMP:  84;

$$

AZZ020-021-025-026-031-281900-
SOUTHWEST ARIZONA

CITY           SKY/WX    TMP DP  RH WIND       PRES   REMARKS
YUMA           MOSUNNY   98  57  25 VRB5      29.98S
6HR MIN TEMP:  85; 6HR MAX TEMP:  99;

$$

CAZ031-033-041-043-047-048-061-281900-
SOUTHERN CALIFORNIA

CITY           SKY/WX    TMP DP  RH WIND       PRES   REMARKS
DOWNTOWN L.A.  PTSUNNY   79  60  52 VRB3      30.06S
6HR MIN TEMP:  68; 6HR MAX TEMP:  79; 6HR PCP: TRACE;

L.A. AIRPORT   PTSUNNY   73  64  73 W7        30.08S
6HR MIN TEMP:  68; 6HR MAX TEMP:  73;

SAN DIEGO      MOSUNNY   80  63  55 W8        30.07S
6HR MIN TEMP:  71; 6HR MAX TEMP:  81;

BURBANK        MOSUNNY   84  53  34 CALM      30.07F
6HR MIN TEMP:  70; 6HR MAX TEMP:  84;

ONTARIO        CLOUDY    82  49  31 SW7       30.09R
6HR MIN TEMP:  73; 6HR MAX TEMP:  82;

RIVERSIDE      CLOUDY    81  55  40 W6        30.09R
6HR MIN TEMP:  71; 6HR MAX TEMP:  82; 6HR PCP: TRACE;

PALM SPRINGS   PTSUNNY   99  56  23 N5        29.99F
6HR MIN TEMP:  86; 6HR MAX TEMP:  99;

EL CENTRO NAS  MOSUNNY  100  59  25 VRB5      29.95S HX 100
6HR MIN TEMP:  83; 6HR MAX TEMP: 101;

IMPERIAL       MOSUNNY  100  62  28 W6        29.95R HX 101
6HR MIN TEMP:  85; 6HR MAX TEMP: 101;

BLYTHE           N/A    N/A N/A N/A MISG      29.99S
NEEDLES        SUNNY    102  57  22 N9        30.01F HX 101
6HR MIN TEMP:  87; 6HR MAX TEMP: 103;

$$

NVZ020-UTZ003-281900-
SOUTHERN NEVADA-UTAH

CITY           SKY/WX    TMP DP  RH WIND       PRES   REMARKS
LAS VEGAS      PTSUNNY   89  57  33 VRB7      30.09F
6HR MIN TEMP:  80; 6HR MAX TEMP:  90;

SALT LAKE CITY MOSUNNY   89  48  24 SW6       30.18F
6HR MIN TEMP:  77; 6HR MAX TEMP:  91;

$$

NMZ009-TXZ055-281900-
NEW MEXICO-WEST TEXAS

CITY           SKY/WX    TMP DP  RH WIND       PRES   REMARKS
ALBUQUERQUE    PTSUNNY   78  54  43 S9        30.40F
6HR MIN TEMP:  69; 6HR MAX TEMP:  78;

EL PASO        CLOUDY    83  59  44 N12       30.26S
6HR MIN TEMP:  74; 6HR MAX TEMP:  83;

$$


........................KEY........................
SKY/WX - SKY CONDITION/WEATHER
TMP    - TEMPERATURE IN FAHRENHEIT
DP     - DEW POINT IN FAHRENHEIT
RH     - RELATIVE HUMIDITY IN PERCENT
WIND   - DIRECTION AND SPEED IN MILES PER HOUR (MPH)
VRB    - VARIABLE WIND DIRECTION
PRES   - MEAN SEA LEVEL PRESSURE IN INCHES OF MERCURY
         F - FALLING PRESSURE   R - RISING PRESSURE
         S - STEADY PRESSURE
VSB    - VISIBILITY IN MILES
HX     - HEAT INDEX IN FAHRENHEIT
WCI    - WIND CHILL INDEX IN FAHRENHEIT
TC     - TEMPERATURE IN CELSIUS WHICH IS ALSO KNOWN AS
         TEMPERATURE IN CENTIGRADE
AFB    - AIR FORCE BASE
         LUKE AFB IS LUKE AIR FORCE BASE
         DAVIS-MONTHAN IS DAVIS-MONTHAN AIR FORCE BASE
NAS    - NAVAL AIR STATION
         EL CENTRO NAS IS EL CENTRO NAVAL AIR STATION
N/A    - NOT AVAILABLE



USA.gov is the U.S. government's official web portal to all federal, state and local government web resources and services.